Le nostre stazioni meteo in Italia

Pubblicità
Il mio iltempo24.it
Catania/Sigonella, Italia (16459): Temperatura & dewpoint: 16.10.2018 08:00:00 - 22.10.2018 08:00:00 (CEST)Catania/Sigonella, Italia (16459): velocità del vento: 16.10.2018 08:00:00 - 22.10.2018 08:00:00 (CEST)Catania/Sigonella, Italia (16459): direzione del vento: 16.10.2018 08:00:00 - 22.10.2018 08:00:00 (CEST)Catania/Sigonella, Italia (16459): reduced air pressure: 16.10.2018 08:00:00 - 22.10.2018 08:00:00 (CEST)Catania/Sigonella, Italia (16459): visibility: 16.10.2018 08:00:00 - 22.10.2018 08:00:00 (CEST)
Data & Tempo tt [°C] td [°C] ff [km/h] ff [kn] dd ppp [hPa] vv [km]
22.10.2018 08:00:00 18,6 18,6 8 4 O 1012,7 1,5
22.10.2018 07:00:00 21,0 21,0 - - - - 6
22.10.2018 06:00:00 20,0 20,0 - - - - 8
22.10.2018 05:00:00 20,0 20,0 9 5 O 1012,3 8
22.10.2018 04:00:00 21,0 21,0 - - - - 8
22.10.2018 03:00:00 22,0 22,0 - - - - 8
22.10.2018 02:00:00 21,8 21,8 4 2 E 1014,6 8
22.10.2018 01:00:00 22,0 22,0 - - - - 8
22.10.2018 00:00:00 22,0 22,0 - - - - 8
21.10.2018 23:00:00 20,6 20,6 13 7 NNE 1014,7 8
21.10.2018 22:00:00 21,0 21,0 - - - - 8
21.10.2018 21:00:00 21,0 21,0 - - - - 8
21.10.2018 20:00:00 21,4 21,4 13 7 ONO 1015,3 7
21.10.2018 19:00:00 24,0 24,0 - - - - 7
21.10.2018 18:00:00 25,0 25,0 - - - - 7
21.10.2018 17:00:00 25,2 25,2 5 3 E 1015,0 7
21.10.2018 16:00:00 25,0 25,0 - - - - 5
21.10.2018 15:00:00 26,0 26,0 - - - - 6
21.10.2018 14:00:00 27,0 25,2 5 3 ESE 1016,4 8
21.10.2018 13:00:00 27,0 26,0 - - - - 7
21.10.2018 12:00:00 26,0 26,0 - - - - 6
21.10.2018 11:00:00 24,0 24,0 4 2 NNO 1018,5 5
21.10.2018 10:00:00 23,0 23,0 - - - - 6
21.10.2018 09:00:00 22,0 22,0 - - - - 6
21.10.2018 08:00:00 21,8 21,8 4 2 NO 1018,5 8
21.10.2018 07:00:00 22,0 22,0 - - - - 8
21.10.2018 06:00:00 22,0 22,0 - - - - 8
21.10.2018 05:00:00 22,0 22,0 11 6 ONO 1019,1 8
21.10.2018 04:00:00 22,0 22,0 - - - - 8
21.10.2018 03:00:00 23,0 23,0 - - - - 8
21.10.2018 02:00:00 23,2 23,2 8 4 SO 1020,0 8
21.10.2018 01:00:00 23,0 23,0 - - - - 8
21.10.2018 00:00:00 - - - - - - -
20.10.2018 23:00:00 23,2 23,2 13 7 NO 1020,6 8
20.10.2018 22:00:00 24,0 24,0 - - - - 8
20.10.2018 21:00:00 24,0 24,0 - - - - 8
20.10.2018 20:00:00 24,0 23,8 8 4 E 1019,5 8
20.10.2018 19:00:00 25,0 24,0 - - - - 8
20.10.2018 18:00:00 25,0 25,0 - - - - 8
20.10.2018 17:00:00 26,2 23,9 13 7 E 1019,1 8
20.10.2018 16:00:00 27,0 23,0 - - - - 8
20.10.2018 15:00:00 28,0 23,0 - - - - 8
20.10.2018 14:00:00 28,0 23,8 9 5 ESE 1019,5 8
20.10.2018 13:00:00 28,0 26,0 - - - - 7
20.10.2018 12:00:00 27,0 27,0 - - - - 7
20.10.2018 11:00:00 26,8 26,8 4 2 NO 1019,6 7
20.10.2018 10:00:00 24,0 24,0 - - - - 7
20.10.2018 09:00:00 21,0 21,0 - - - - 7
20.10.2018 08:00:00 20,0 20,0 9 5 O 1018,3 7
20.10.2018 07:00:00 20,0 20,0 - - - - 5
20.10.2018 06:00:00 21,0 21,0 - - - - 7
20.10.2018 05:00:00 21,2 21,2 5 3 NO 1017,6 8
20.10.2018 04:00:00 21,0 21,0 - - - - 8
20.10.2018 03:00:00 22,0 22,0 - - - - 10
20.10.2018 02:00:00 22,8 22,8 5 3 SSO 1017,5 12
20.10.2018 01:00:00 22,0 22,0 - - - - 10
20.10.2018 00:00:00 22,0 22,0 - - - - 10
19.10.2018 23:00:00 22,8 22,8 5 3 O 1016,8 12
19.10.2018 22:00:00 23,0 23,0 - - - - 10
19.10.2018 21:00:00 24,0 24,0 - - - - 10
19.10.2018 20:00:00 23,8 23,8 15 8 E 1015,7 4,0
19.10.2018 19:00:00 24,0 24,0 - - - - 4,0
19.10.2018 18:00:00 25,0 25,0 - - - - 3,5
19.10.2018 17:00:00 23,8 23,8 21 11 E 1013,7 8
19.10.2018 16:00:00 25,0 25,0 - - - - 8
19.10.2018 15:00:00 26,0 26,0 - - - - 8
19.10.2018 14:00:00 22,8 22,8 22 12 E 1013,2 8
19.10.2018 13:00:00 25,0 25,0 - - - - 8
19.10.2018 12:00:00 23,0 23,0 - - - - 8
19.10.2018 11:00:00 21,8 21,8 15 8 S 1013,4 10
19.10.2018 10:00:00 22,0 22,0 - - - - 10
19.10.2018 09:00:00 20,0 20,0 - - - - 10
19.10.2018 08:00:00 19,0 19,0 8 4 S 1011,8 10
19.10.2018 07:00:00 19,0 19,0 - - - - 7
19.10.2018 06:00:00 19,0 19,0 - - - - 7
19.10.2018 05:00:00 19,0 19,0 16 9 SO 1011,5 1,5
19.10.2018 04:00:00 20,0 20,0 - - - - 10
19.10.2018 03:00:00 24,0 24,0 - - - - 8
19.10.2018 02:00:00 23,2 23,2 28 15 ENE 1010,8 10
19.10.2018 01:00:00 20,0 20,0 - - - - 10
19.10.2018 00:00:00 19,0 19,0 - - - - 10
18.10.2018 23:00:00 18,8 18,8 9 5 NO 1012,8 10
18.10.2018 22:00:00 18,0 18,0 - - - - 2,0
18.10.2018 21:00:00 20,0 20,0 - - - - 5
18.10.2018 20:00:00 24,8 24,8 18 10 ENE 1011,4 6
18.10.2018 19:00:00 25,0 25,0 - - - - 6
18.10.2018 18:00:00 25,0 25,0 - - - - 6
18.10.2018 17:00:00 25,2 25,2 35 19 ENE 1009,4 6
18.10.2018 16:00:00 25,0 25,0 - - - - 6
18.10.2018 15:00:00 26,0 26,0 - - - - 8
18.10.2018 14:00:00 25,2 25,2 37 20 ENE 1010,5 8
18.10.2018 13:00:00 26,0 26,0 - - - - 8
18.10.2018 12:00:00 25,0 25,0 - - - - 7
18.10.2018 11:00:00 25,0 25,0 37 20 E 1012,2 7
18.10.2018 10:00:00 25,0 25,0 - - - - 7
18.10.2018 09:00:00 25,0 25,0 - - - - 7
18.10.2018 08:00:00 24,4 24,4 31 17 E 1011,5 8
18.10.2018 07:00:00 24,0 24,0 - - - - 9
18.10.2018 06:00:00 24,0 24,0 - - - - 10
18.10.2018 05:00:00 24,4 24,4 29 16 E 1011,3 10
18.10.2018 04:00:00 24,0 24,0 - - - - 10
18.10.2018 03:00:00 24,0 24,0 - - - - 10
18.10.2018 02:00:00 24,4 24,4 22 12 E 1013,0 10
18.10.2018 01:00:00 24,0 24,0 - - - - 10
18.10.2018 00:00:00 24,0 24,0 - - - - 10
17.10.2018 23:00:00 23,8 23,8 21 11 E 1014,3 10
17.10.2018 22:00:00 24,0 24,0 - - - - 10
17.10.2018 21:00:00 24,0 24,0 - - - - 10
17.10.2018 20:00:00 24,0 24,0 16 9 E 1013,9 10
17.10.2018 19:00:00 25,0 25,0 - - - - 10
17.10.2018 18:00:00 26,0 26,0 - - - - 10
17.10.2018 17:00:00 26,2 26,2 28 15 E 1013,9 10
17.10.2018 16:00:00 27,0 26,0 - - - - 10
17.10.2018 15:00:00 28,0 27,0 - - - - 8
17.10.2018 14:00:00 27,4 26,5 28 15 E 1015,0 8
17.10.2018 13:00:00 27,0 26,0 - - - - 8
17.10.2018 12:00:00 27,0 27,0 - - - - 7
17.10.2018 11:00:00 25,0 25,0 4 2 E 1016,1 6
17.10.2018 10:00:00 23,0 23,0 - - - - 6
17.10.2018 09:00:00 21,0 21,0 - - - - 5
17.10.2018 08:00:00 20,0 20,0 9 5 O 1016,2 7
17.10.2018 07:00:00 20,0 20,0 - - - - 6
17.10.2018 06:00:00 20,0 20,0 - - - - 6
17.10.2018 05:00:00 20,0 20,0 11 6 O 1016,5 6
17.10.2018 04:00:00 20,0 20,0 - - - - 6
17.10.2018 03:00:00 20,0 20,0 - - - - 6
17.10.2018 02:00:00 21,6 21,6 0 0 N 1017,5 7
17.10.2018 01:00:00 22,0 22,0 - - - - 7
17.10.2018 00:00:00 23,0 23,0 - - - - 10
16.10.2018 23:00:00 23,0 23,0 9 5 ENE 1017,8 10
16.10.2018 22:00:00 23,0 23,0 - - - - 10
16.10.2018 21:00:00 23,0 23,0 - - - - 10
16.10.2018 20:00:00 23,6 23,6 5 3 E 1017,4 10
16.10.2018 19:00:00 24,0 24,0 - - - - 9
16.10.2018 18:00:00 26,0 26,0 - - - - 9
16.10.2018 17:00:00 26,6 26,1 15 8 E 1016,6 9
16.10.2018 16:00:00 27,0 27,0 - - - - 9
16.10.2018 15:00:00 28,0 23,0 - - - - 9
16.10.2018 14:00:00 28,0 23,8 8 4 E 1017,2 9
16.10.2018 13:00:00 27,0 25,0 - - - - 8
16.10.2018 12:00:00 26,0 26,0 - - - - 8
16.10.2018 11:00:00 25,0 25,0 2 1 OSO 1017,4 8
16.10.2018 10:00:00 23,0 23,0 - - - - 7
16.10.2018 09:00:00 22,0 22,0 - - - - 7
16.10.2018 08:00:00 19,2 19,2 8 4 O 1016,9 8

tt = Temperatura
td = dewpoint
ff = velocità del vento
dd = direzione del vento
ppp = reduced air pressure
vv = visibility

Stazioni seguenti

WeatherPro
AMSI
MeteoEarth